Погода в Осташкове

Погода в Осташкове : погода сейчас, прогноз погоды и архив. Всё, что Вы хотите узнать о погоде в Осташкове!

Поиск расширенной информации на нашем сайте:

Другие новости

Новости СМИ2

Главная страница сайта

Новости сайта

03.07.2017

Напоминаем, что на нашем специализированном сайте Метеоцентр.Азия вы можете получить высокодетализированные автоматические прогнозы погоды по пунктам России, СНГ и мира в авиационном формате (включающие направление и скорость ветра, видимость, явления погоды, количество и форму облачности, нижнюю и верхнюю границу облачности).


Погода в Осташкове - сегодня

Время (UTC), дата Ветер
(°,м/с) 
Видим.   Явления Облачность Т
(°С)
Тd
(°С)
f(%) Тe
(°С)
Pmin
(гПа)
dP
(гПа)
Po
(мм)
O2
(г/м3)
Тmin Tmax R s Состояние
почвы
03 11.12.17 020 (С) 4000 м  дымка{ливн. осадки}  10/10 300 м 
[St]
+0 +0 100 +1  999.8  -1.1  730  294  -0       
06 11.12.17 тихо ()   4000 м  дымка{ливн. осадки}  10/10 300 м 
[St]
+0.1 +0.1 100 1000.2  0.3  730  294  +0    14  равномерный
мокрый или
старый снег
100% 
09 11.12.17 310 (СЗ) 4000 м  дымка{ливн. осадки}  10/10 200 м 
[St]
+0.1 +0.1 100 +1  1001.1  0.9  731  294           
12 11.12.17 270 (З) 4000 м  слаб. ливневой снег  10/10 300 м кучево-дожд. 
[Cb cap]
-0.2 -0.2 100 -1  1002.4  1.2  732  295           
15 11.12.17 260 (З) 4000 м  дымка{ливн. осадки}  10/10 300 м 
[St]
-1.1 -1.1 100 -2  1004.7  2.2  734  297         
18 11.12.17 240 (ЮЗ) 4000 м  дымка{ливн. осадки}  10/10 300 м 
[St]
-1.9 -2.2 98 -3  1007.2  2.3  735  299    +0.2     
21 11.12.17 170 (Ю) 4000 м  дымка  9/9 300 м 
[St]
-3.2 -3.7 96 -3  1009.2  1.9  737  301           
00 12.12.17 170 (Ю) 4000 м  дымка  10/10 300 м 
[St]
-3.3 -3.5 99 -3  1010.4  1.1  738  301           
03 12.12.17 160 (Ю) 4000 м  дымка  10/10 200 м 
[St]
-3.1 -3.1 100 -4  1010.2  -0.2  737  301  -3.9         
06 12.12.17 110 (В) 4000 м  дымка  10/10 300 м 
[St]
-2.9 -2.9 100 -2  1009.6  -0.6  737  300  -3.9      16  равномерный
сухой снег
100% 
09 12.12.17 140 (ЮВ) 4000 м  дымка  10/10 300 м 
[St]
-2 -2 100 -3  1009  -0.5  737  299           
12 12.12.17 140 (ЮВ) 4000 м  дымка  10/10 300 м 
[St]
-0.8 -0.8 100 -2  1005.9  -2.8  734  297           
15 12.12.17 140 (ЮВ) 4000 м  дымка  10/10 300 м 
[St]
+0.2 +0.2 100 -1  1004  -1.8  733  295           
18 12.12.17 160 (Ю) 4000 м  дымка  10/10 300 м 
[St]
+0.5 +0.5 100 1002.5  -1.4  732  294    +0.5       
21 12.12.17 170 (Ю) 4000 м  дымка  10/10 300 м 
[St]
+1.1 +1.1 100 1002.6  0.2  732  294           
00 13.12.17 180 (Ю) 4000 м  дымка  10/10 300 м 
[St]
+1.7 +1.7 100 +1  1002.9  0.3  732  293           
03 13.12.17 190 (Ю) 4000 м  дымка  10/10 300 м 
[St]
+2.3 +2.3 100 +2  1002  -0.8  732  292  +0.2         
06 13.12.17 200 (Ю) 3{10}  10 км    9/9 600 м 
[Sc]
+2.6 +0.1 84 +1  1003.5  1.5  733  292  +0.2      14  равномерный
мокрый или
старый снег
100% 
09 13.12.17 210 (ЮЗ) 3{11}  10 км    9/9 600 м 
[Sc]
+2.1 -0.3 84 +1  1005.3  1.6  734  294           
12 13.12.17 210 (ЮЗ) 3{11}  4000 м  дымка  9/9 600 м 
[Sc]
+1.6 -0.4 87 1007.4  736  295           
15 13.12.17 240 (ЮЗ) 4000 м  дымка  8/8 600 м 
[Sc]
+0.4 -0.6 93 -1  1009.8  2.2  737  297           
18 13.12.17 230 (ЮЗ) 4000 м  дымка{ливн. осадки}  8/8 600 м 
[Sc]
-0.8 -2 92 -2  1011.3  1.4  738  299    +2.6  0.2     
21 13.12.17 170 (Ю) 4000 м  дымка  ясно 
-3.5 -3.5 100 -3  1012.1  0.5  739  302           
00 14.12.17 170 (Ю) 4000 м  дымка  6/0 средняя 
[Ac trans]
-2.1 -2.1 100 -2  1012.2  0.2  739  300           
03 14.12.17 150 (ЮВ) 4000 м  дымка  8/0 средняя 
[Ac trans]
-1.6 -2.1 96 -1  1011.8  -0.4  739  300  -4    0.2     
Время (UTC), дата Ветер
(°,м/с) 
Видим.   Явления Облачность Т
(°С)
Тd
(°С)
f(%) Тe
(°С)
Pmin
(гПа)
dP
(гПа)
Po
(мм)
O2
(г/м3)
Тmin Tmax R s Состояние
почвы

Для получения пояснительной информации подведите курсор к названию столбца.

ПОГОДА в Осташкове - архив

Всё, что Вы хотите узнать о погоде в Осташкове - удобно и подробно!

Выберите нужную дату (начиная с 1 января 2015* года) и нажмите кнопку "Найти".
Будут отображены архивные сводки погоды по пункту Осташков, начиная с указанной даты.


Отображать данные в формате CSV (для использования в таблицах Excel)


Внимание! Наш архив погоды предназначен исключительно для личного некоммерческого использования в познавательных целях. Если Вам необходимы официальные справки о состоянии погоды (для производственных, юридических, коммерческих и т.п. целей), обращайтесь в органы Росгидромета.

*Примечание: данная дата относится к архиву по метеостанциям СССР (Россия, СНГ, Балтия).
Архив по метеостанциям Зарубежной Европы и Азии (кроме Китая) хранится 10 дней, по другим регионам земного шара (Китай, Африка, Америка, Австралия, Океания) - 1 день.

Осташков - район местоположения метеостанции


Название, широта, долгота, высота метеостанции:
Осташков 57.1°ш. 33.1°д. 218 м над ур. моря [Российская Федерация]

Дополнительная информация

В oтличие oт бoльшинства пoгoдных сайтoв мы публикуем пoдрoбную метеoинфoрмацию в детальнoм прoфессиoнальнoм фoрмате.

Характеристики температуры и влажнoсти вoздуха измеряются на высoте 2 м в тени вдали oт зданий и деревьев.
Скoрoсть ветра измеряется на высoте 10 м (на урoвне рoста челoвека скoрoсть ветра ниже в 1.5-2 раза). Если метеoстанция нахoдится в гoрoде или в лесу, тo скoрoсть ветра занижена на 2-4 м/с пo сравнению с oткрытым местoм. Скoрoсть ветра над акватoриями крупных рек и oзёр, а также на вершинах хoлмoв на 2-5 м/с выше, чем в oбычных услoвиях.
Атмoсфернoе давление в разных тoчках местнoсти мoжет значительнo oтличаться oт давления на метеoстанции, в зависимoсти oт услoвий рельефа (при пoдъёме на 10 м давление пoнижается примернo на 1 мм рт.ст.).